Atlantic City, NJ

7:23 PM EDT on April 24, 2017 (GMT -0400)
Atlantic City International

Weather History for KACY - November, 2012

Change the Weather History Date:

Thursday, November 1, 2012

  Actual Average Record
Temperature  
Mean Temperature 45 °F 51 °F  
Max Temperature 51 °F 62 °F 81 °F (1974)
Min Temperature 38 °F 41 °F 26 °F (1968)
Degree Days  
Heating Degree Days 20 14  
Month to date heating degree days 20 14  
Since 1 July heating degree days 306 372  
Cooling Degree Days 0 0  
Month to date cooling degree days 0 0  
Year to date cooling degree days 1218 1054  
Moisture  
Dew Point 37 °F    
Average Humidity 72    
Maximum Humidity 85    
Minimum Humidity 59    
Precipitation  
Precipitation 0.00 in 0.11 in 3.14 in (1951)
Month to date precipitation 0.00 0.11  
Year to date precipitation 40.11 34.90  
Snow  
Snow 0.00 in 0.00 in 0.00 in ()
Month to date snowfall 0.0 0.0  
Since 1 July snowfall 0.0 0.0  
Since 1 September snowfall 0.0 0.0  
Snow Depth 0.00 in    
Sea Level Pressure  
Sea Level Pressure 29.66 in    
Wind  
Wind Speed 8 mph (WSW)    
Max Wind Speed 15 mph    
Max Gust Speed 18 mph    
Visibility 10 miles    
Events      
T = Trace of Precipitation, MM = Missing Value Source: NWS Daily Summary

Daily Weather History Graph

Daily Weather History Graph

Search for Another Location

Airport or City:

Trip Planner

Search our weather history database for the weather conditions in past years. The results will help you decide how hot, cold, wet, or windy it might be!

Date:

Astronomy

Nov. 01, 2012 Rise Set
Actual Time 7:26 AM EDT 5:56 PM EDT
Civil Twilight 6:59 AM EDT 6:24 PM EDT
Nautical Twilight 6:27 AM EDT 6:55 PM EDT
Astronomical Twilight 5:55 AM EDT 7:27 PM EDT
Moon 7:52 PM EDT (11/1) 9:56 AM EDT (11/1)
Length of Visible Light 11h 25m
Length of Day
10h 29m
Waning Gibbous, 93% of the Moon is Illuminated
Nov 1
Waning Gibbous
Nov 6
Last Quarter
Nov 13
New
Nov 20
First Quarter
Nov 28
Full

Hourly Weather History & Observations

Time (EDT) Temp. Windchill Dew Point Humidity Pressure Visibility Wind Dir Wind Speed Gust Speed Precip Events Conditions
12:54 AM 46.0 °F 43.9 °F 37.9 °F 73% 29.63 in 10.0 mi WSW 4.6 mph - N/A   Scattered Clouds
1:54 AM 45.0 °F 41.8 °F 37.0 °F 74% 29.63 in 10.0 mi West 5.8 mph - N/A   Clear
2:54 AM 44.1 °F 41.5 °F 36.0 °F 73% 29.64 in 10.0 mi WSW 4.6 mph - N/A   Clear
3:54 AM 43.0 °F 40.3 °F 36.0 °F 76% 29.64 in 10.0 mi SW 4.6 mph - N/A   Clear
4:54 AM 41.0 °F 37.1 °F 35.1 °F 79% 29.64 in 10.0 mi West 5.8 mph - N/A   Clear
5:54 AM 41.0 °F 37.1 °F 35.1 °F 79% 29.64 in 10.0 mi WSW 5.8 mph - N/A   Clear
6:54 AM 39.9 °F 37.8 °F 35.1 °F 83% 29.65 in 10.0 mi SW 3.5 mph - N/A   Clear
7:54 AM 39.0 °F 35.7 °F 35.1 °F 86% 29.66 in 10.0 mi SW 4.6 mph - N/A   Clear
8:54 AM 45.0 °F 41.2 °F 36.0 °F 71% 29.67 in 10.0 mi WSW 6.9 mph - N/A   Partly Cloudy
9:54 AM 48.9 °F - 36.0 °F 61% 29.67 in 10.0 mi WSW 9.2 mph - N/A   Clear
10:54 AM 50.0 °F - 37.0 °F 61% 29.67 in 10.0 mi West 11.5 mph - N/A   Scattered Clouds
11:54 AM 48.9 °F - 36.0 °F 61% 29.67 in 10.0 mi West 12.7 mph - N/A   Overcast
12:54 PM 50.0 °F - 37.0 °F 61% 29.65 in 10.0 mi West 9.2 mph - N/A   Overcast
1:54 PM 50.0 °F - 37.0 °F 61% 29.64 in 10.0 mi West 11.5 mph - N/A   Overcast
2:54 PM 51.1 °F - 37.0 °F 59% 29.63 in 10.0 mi WSW 9.2 mph - N/A   Overcast
3:54 PM 50.0 °F - 37.9 °F 63% 29.64 in 10.0 mi West 11.5 mph 17.3 mph N/A   Overcast
4:54 PM 50.0 °F - 37.0 °F 61% 29.65 in 10.0 mi West 11.5 mph - N/A   Overcast
5:54 PM 48.9 °F - 37.0 °F 64% 29.65 in 10.0 mi West 6.9 mph - N/A   Mostly Cloudy
6:54 PM 48.0 °F - 37.0 °F 66% 29.68 in 10.0 mi West 8.1 mph - N/A   Overcast
7:54 PM 46.9 °F - 37.0 °F 68% 29.68 in 10.0 mi WSW 4.6 mph - N/A   Overcast
8:54 PM 46.9 °F - 37.0 °F 68% 29.69 in 10.0 mi WSW 5.8 mph - N/A   Partly Cloudy
9:54 PM 46.9 °F - 37.0 °F 68% 29.69 in 10.0 mi SW 6.9 mph - N/A   Overcast
10:54 PM 46.9 °F - 37.0 °F 68% 29.70 in 10.0 mi WSW 8.1 mph - N/A   Overcast
11:54 PM 46.9 °F - 37.0 °F 68% 29.69 in 10.0 mi West 9.2 mph - N/A   Overcast